Weather Roundup
Issued by NWS Corpus Christi, TX

Home | Current Version | Previous Version | Text Only | Print | Product List | Glossary On
Versions: 1 2 3 4 5 6 7 8 9 10 11 12 13 14 15 16 17 18 19 20 21 22 23 24 25 26 27 28 29 30 31 32 33 34 35 36 37 38 39 40 41 42 43 44 45 46 47 48 49 50
000
ASUS44 KCRP 040710
HRRCRP

SOUTH TEXAS REGIONAL WEATHER ROUNDUP
NATIONAL WEATHER SERVICE CORPUS CHRISTI TX
200 AM CDT TUE AUG 04 2015


TXZ229>244-040800-
...CORPUS CHRISTI AREA OBSERVATIONS...

CITY           SKY/WX    TMP DP  RH WIND       PRES   REMARKS
CORPUS CHRISTI MOCLDY    81  78  91 S9        29.90S
NAS CORPUS CHR MOCLDY    83  78  85 S15       29.90S HX  93
ROCKPORT       MOCLDY    85  77  77 S8        29.90S HX  95
KINGSVILLE NAS CLEAR     81  80  97 S7        29.90S HX  91
ALICE          CLEAR     78  77  96 SE5       29.90S
FALFURRIAS     CLEAR     80  76  87 SE3       29.90S
$$

...VICTORIA AREA OBSERVATIONS...

CITY           SKY/WX    TMP DP  RH WIND       PRES   REMARKS
VICTORIA       PTCLDY    78  76  93 CALM      29.92S
BEEVILLE       FAIR      77  77  99 CALM      29.92R
PLEASANTON     MOCLDY    79  73  81 SE5       29.93R
SAN ANTONIO    CLEAR     81  72  74 S7        29.95R
$$

...LAREDO AREA OBSERVATIONS...

CITY           SKY/WX    TMP DP  RH WIND       PRES   REMARKS
LAREDO         CLEAR     85  73  67 SE15      29.91R HX  91
COTULLA        CLEAR     82  75  79 SE12      29.90S
DEL RIO        CLEAR     83  64  52 E7        29.89S
MCALLEN        CLEAR     84  75  74 SE13G21   29.90S HX  92
HEBBRONVILLE     N/A     79  74  85 SE7       29.92S
$$

...OTHER TEXAS OBSERVATIONS...

CITY           SKY/WX    TMP DP  RH WIND       PRES   REMARKS
BROWNSVILLE    CLEAR     80  76  87 S6        29.91R
HOUSTON        PTCLDY    80  74  81 CALM      29.91S
COL. STATION   CLEAR     80  71  74 S5        29.92S
AUSTIN         CLEAR     78  71  79 S6        29.93R
WACO           CLEAR     83  67  58 S10       29.92R
FORT WORTH     PTCLDY    85  62  46 S6        29.90R
WICHITA FALLS  CLOUDY    81  65  58 S10       29.89S
LUBBOCK        CLOUDY    72  64  76 S9        30.03R
EL PASO        MOCLDY    77  60  55 S5        30.05F
$$

...MARINE OBSERVATIONS...

STATION/POSITION TIME  SKY/WX   TEMP    WIND        PRES    VSBY  WAVE   SWELL
                                AIR SEA DIR/SP/G                  HT/PER HT/PER
                 (UTC)          (F)     (DEG/KT/KT) (MB)    (MI)  (FT/S) (FT/S)
PORT ARANSAS     0700            84 86  160/ 14/ 16 1013.1F
BUOY 90 E PORT A 0650            85 86  180/ 14/ 16 1012.5F         2/ 3
BUOY 45 SE BAFFI 0650            84 85  170/ 16/ 19 1012.0R         3/ 4
BUOY 200 E PT IS 0650            86 86  170/ 14/ 16 1013.4F         2/ 5
BUOY 15 E GALVES 0650            86 87  200/ 10/ 12 1012.5R         2/ 4   2/ 8
$$


USA.gov is the U.S. government's official web portal to all federal, state and local government web resources and services.